timestamp,surface_pressure_avg,surface_temp_avg,battery_voltage,lat,long
2021-01-16 00:09:01+00:00,296.4097,3.4,12.41,47.84626,-54.09684
2021-01-16 00:19:01+00:00,305.298,3.4,12.41,47.84626,-54.09684
2021-01-16 00:29:01+00:00,313.243,3.4,12.41,47.84626,-54.09684
2021-01-16 00:39:01+00:00,318.2347,3.42,12.41,47.84626,-54.09684
2021-01-16 00:49:01+00:00,323.1463,3.5,12.41,47.84626,-54.09684
2021-01-16 00:59:01+00:00,329.9313,3.4,12.41,47.84626,-54.09684
2021-01-16 01:09:01+00:00,325.9697,3.23,12.41,47.84626,-54.09684
2021-01-16 01:19:01+00:00,324.778,3.3,12.41,47.84626,-54.09684
2021-01-16 01:29:01+00:00,328.603,3.2,12.41,47.84626,-54.09684
2021-01-16 01:39:01+00:00,327.5113,3.1,12.41,47.84626,-54.09684
2021-01-16 01:49:01+00:00,321.9097,3.18,12.41,47.84626,-54.09684
2021-01-16 01:59:01+00:00,322.6696,3.1,12.41,47.84626,-54.09684
2021-01-16 02:09:01+00:00,326.103,3.2,12.41,47.84626,-54.09684
2021-01-16 02:19:01+00:00,325.2713,3.1,12.41,47.84626,-54.09684
2021-01-16 02:29:01+00:00,326.8214,3.06,12.41,47.84626,-54.09684
2021-01-16 02:39:01+00:00,330.9263,3.1,12.41,47.84626,-54.09684
2021-01-16 02:49:01+00:00,326.1447,3.16,12.41,47.84626,-54.09684
2021-01-16 02:59:01+00:00,324.943,3.4,12.41,47.84626,-54.09684
2021-01-16 03:09:01+00:00,327.103,3.4,12.41,47.84626,-54.09684
2021-01-16 03:19:01+00:00,317.3164,3.35,12.41,47.84626,-54.09684
2021-01-16 03:29:01+00:00,304.603,3.31,12.41,47.84626,-54.09684
2021-01-16 03:39:01+00:00,309.9147,3.33,12.41,47.84626,-54.09684
2021-01-16 03:49:01+00:00,309.428,3.28,12.41,47.84626,-54.09684
2021-01-16 03:59:01+00:00,297.7113,3.27,12.41,47.84626,-54.09684
2021-01-16 04:09:01+00:00,295.58799999999997,3.4,12.41,47.84626,-54.09684
2021-01-16 04:19:01+00:00,294.6931,3.4,12.41,47.84626,-54.09684
2021-01-16 04:29:01+00:00,284.0031,3.3,12.41,47.84626,-54.09684
2021-01-16 04:39:01+00:00,270.9047,2.9,12.41,47.84626,-54.09684
2021-01-16 04:49:01+00:00,269.0397,2.9,12.41,47.84626,-54.09684
2021-01-16 04:59:01+00:00,261.2131,2.85,12.41,47.84626,-54.09684
2021-01-16 05:09:01+00:00,246.8064,2.89,12.41,47.84626,-54.09684
2021-01-16 05:19:01+00:00,236.7547,2.96,12.41,47.84626,-54.09684
2021-01-16 05:29:01+00:00,234.6681,2.9,12.41,47.84626,-54.09684
2021-01-16 05:39:01+00:00,226.9431,2.87,12.41,47.84626,-54.09684
2021-01-16 05:49:01+00:00,215.5964,2.83,12.41,47.84626,-54.09684
2021-01-16 05:59:01+00:00,209.7864,2.89,12.41,47.84626,-54.09684
2021-01-16 06:09:01+00:00,208.9648,2.9,12.41,47.84626,-54.09684
2021-01-16 06:19:01+00:00,201.5231,2.89,12.41,47.84626,-54.09684
2021-01-16 06:29:01+00:00,196.1598,2.9,12.41,47.84626,-54.09684
2021-01-16 06:39:01+00:00,194.2747,2.9,12.41,47.84626,-54.09684
2021-01-16 06:49:01+00:00,187.2282,2.9,12.41,47.84626,-54.09684
2021-01-16 06:59:01+00:00,185.6998,2.94,12.41,47.84626,-54.09684
2021-01-16 07:09:01+00:00,190.6315,2.94,12.41,47.84626,-54.09684
2021-01-16 07:19:01+00:00,192.6064,2.98,12.33,47.84626,-54.09684
2021-01-16 07:29:01+00:00,191.4564,2.99,12.33,47.84626,-54.09684
2021-01-16 07:39:01+00:00,193.1915,3.0,12.33,47.84626,-54.09684
2021-01-16 07:49:01+00:00,194.8881,3.0,12.33,47.84626,-54.09684
2021-01-16 07:59:01+00:00,194.7364,2.9,12.33,47.84626,-54.09684
2021-01-16 08:09:01+00:00,195.9097,2.9,12.33,47.84626,-54.09684
2021-01-16 08:19:01+00:00,197.1398,2.96,12.33,47.84626,-54.09684
2021-01-16 08:29:01+00:00,197.7981,2.9,12.33,47.84626,-54.09684
2021-01-16 08:39:01+00:00,195.8065,2.94,12.33,47.84626,-54.09684
2021-01-16 08:49:01+00:00,200.0315,3.0,12.33,47.84626,-54.09684
2021-01-16 08:59:01+00:00,201.4881,3.0,12.33,47.84626,-54.09684
2021-01-16 09:09:01+00:00,205.9681,2.95,12.33,47.84626,-54.09684
2021-01-16 09:19:01+00:00,212.3565,2.9,12.33,47.84626,-54.09684
2021-01-16 09:29:01+00:00,216.7581,2.9,12.33,47.84626,-54.09684
2021-01-16 09:39:01+00:00,220.9481,2.9,12.33,47.84626,-54.09684
2021-01-16 09:49:01+00:00,227.9181,2.9,12.33,47.84626,-54.09684
2021-01-16 09:59:01+00:00,235.2714,2.9,12.33,47.84626,-54.09684
2021-01-16 10:09:01+00:00,241.9397,2.9,12.33,47.84626,-54.09684
2021-01-16 10:19:01+00:00,247.8331,2.9,12.33,47.84626,-54.09684
2021-01-16 10:29:01+00:00,256.2047,2.9,12.33,47.84626,-54.09684
2021-01-16 10:39:01+00:00,266.8597,2.9,12.33,47.84626,-54.09684
2021-01-16 10:49:01+00:00,275.6347,2.94,12.33,47.84626,-54.09684
2021-01-16 10:59:01+00:00,277.9064,3.0,12.33,47.84626,-54.09684
2021-01-16 11:09:01+00:00,281.8497,3.0,12.33,47.84626,-54.09684
2021-01-16 11:19:01+00:00,287.9814,3.0,12.33,47.84626,-54.09684
2021-01-16 11:29:01+00:00,292.6863,3.0,12.33,47.84626,-54.09684
2021-01-16 11:39:01+00:00,298.2563,3.0,12.33,47.84626,-54.09684
2021-01-16 11:49:01+00:00,303.3797,3.0,12.33,47.84626,-54.09684
2021-01-16 11:59:01+00:00,308.8314,3.0,12.33,47.84626,-54.09684
2021-01-16 12:09:01+00:00,319.3929,3.0,12.33,47.84626,-54.09684
2021-01-16 12:19:01+00:00,334.6896,3.0,12.33,47.84626,-54.09684
2021-01-16 12:29:01+00:00,342.6464,2.9,12.33,47.84626,-54.09684
2021-01-16 12:39:01+00:00,346.5463,2.99,12.33,47.84626,-54.09684
2021-01-16 12:49:01+00:00,353.68800000000016,3.0,12.33,47.84626,-54.09684
2021-01-16 12:59:01+00:00,361.7446,3.0,12.33,47.84626,-54.09684
2021-01-16 13:09:01+00:00,365.7146,3.0,12.33,47.84626,-54.09684
2021-01-16 13:19:01+00:00,367.7696,2.99,12.33,47.84626,-54.09684
2021-01-16 13:29:01+00:00,370.8846,2.99,12.33,47.84626,-54.09684
2021-01-16 13:39:01+00:00,376.6447,2.99,12.33,47.84626,-54.09684
2021-01-16 13:49:01+00:00,382.6946,3.0,12.33,47.84626,-54.09684
2021-01-16 13:59:01+00:00,386.2878,2.98,12.33,47.84626,-54.09684
2021-01-16 14:09:01+00:00,389.3879,3.0,12.33,47.84626,-54.09684
2021-01-16 14:19:01+00:00,390.0428,3.05,12.49,47.84626,-54.09684
2021-01-16 14:29:01+00:00,386.3662,3.01,12.49,47.84626,-54.09684
2021-01-16 14:39:01+00:00,387.1428,3.1,12.49,47.84626,-54.09684
2021-01-16 14:49:01+00:00,387.783,3.2,12.49,47.84626,-54.09684
2021-01-16 14:59:01+00:00,384.1979,3.12,12.49,47.84626,-54.09684
2021-01-16 15:09:01+00:00,375.8696,3.1,12.49,47.84626,-54.09684
2021-01-16 15:19:01+00:00,372.7945,3.15,13.29,47.84626,-54.09684
2021-01-16 15:29:01+00:00,374.6312,3.2,13.29,47.84626,-54.09684
2021-01-16 15:39:01+00:00,372.8179,3.1,13.29,47.84626,-54.09684
2021-01-16 15:49:01+00:00,364.8129,3.11,13.29,47.84626,-54.09684
2021-01-16 15:59:01+00:00,359.0846,3.18,13.29,47.84626,-54.09684
2021-01-16 16:09:01+00:00,355.9046,3.1,13.29,47.84626,-54.09684
2021-01-16 16:19:01+00:00,349.793,3.1,13.68,47.84626,-54.09684
2021-01-16 16:29:01+00:00,340.3513,3.1,13.68,47.84626,-54.09684
2021-01-16 16:39:01+00:00,335.2812,3.1,13.68,47.84626,-54.09684
2021-01-16 16:49:01+00:00,328.5197,3.1,13.68,47.84626,-54.09684
2021-01-16 16:59:01+00:00,318.158,3.1,13.68,47.84626,-54.09684
2021-01-16 17:09:01+00:00,306.9064,3.1,13.68,47.84626,-54.09684
2021-01-16 17:19:01+00:00,299.6946,3.1,13.6,47.84626,-54.09684
2021-01-16 17:29:01+00:00,291.5064,3.1,13.6,47.84626,-54.09684
2021-01-16 17:39:01+00:00,281.0831,3.1,13.6,47.84626,-54.09684
2021-01-16 17:49:01+00:00,268.4097,3.1,13.6,47.84626,-54.09684
2021-01-16 17:59:01+00:00,257.2198,3.09,13.6,47.84626,-54.09684
2021-01-16 18:09:01+00:00,244.8831,3.1,13.6,47.84626,-54.09684
2021-01-16 18:19:01+00:00,229.7564,3.1,13.29,47.84626,-54.09684
2021-01-16 18:29:01+00:00,223.5797,3.1,13.29,47.84626,-54.09684
2021-01-16 18:39:01+00:00,224.7481,3.13,13.29,47.84626,-54.09684
2021-01-16 18:49:01+00:00,218.6864,3.1,13.29,47.84626,-54.09684
2021-01-16 18:59:01+00:00,210.0247,3.1,13.29,47.84626,-54.09684
2021-01-16 19:09:01+00:00,211.6314,3.11,13.29,47.84626,-54.09684
2021-01-16 19:19:01+00:00,212.2614,3.29,13.05,47.84626,-54.09684
2021-01-16 19:29:01+00:00,204.9314,3.3,13.05,47.84626,-54.09684
2021-01-16 19:39:01+00:00,198.2065,3.2,13.05,47.84626,-54.09684
2021-01-16 19:49:01+00:00,197.6464,3.1,13.05,47.84626,-54.09684
2021-01-16 19:59:01+00:00,198.9548,3.1,13.05,47.84626,-54.09684
2021-01-16 20:09:01+00:00,198.8415,3.17,13.05,47.84626,-54.09684
2021-01-16 20:19:01+00:00,197.9098,3.1,12.89,47.84626,-54.09684
2021-01-16 20:29:01+00:00,203.6614,3.1,12.89,47.84626,-54.09684
2021-01-16 20:39:01+00:00,212.1431,3.11,12.89,47.84626,-54.09684
2021-01-16 20:49:01+00:00,211.9164,3.1,12.89,47.84626,-54.09684
2021-01-16 20:59:01+00:00,208.9381,3.0,12.89,47.84626,-54.09684
2021-01-16 21:09:01+00:00,214.1581,3.0,12.89,47.84626,-54.09684
2021-01-16 21:19:01+00:00,221.0664,3.0,12.89,47.84626,-54.09684
2021-01-16 21:29:01+00:00,221.1481,2.99,12.89,47.84626,-54.09684
2021-01-16 21:39:01+00:00,220.2331,2.91,12.89,47.84626,-54.09684
2021-01-16 21:49:01+00:00,228.0714,2.91,12.89,47.84626,-54.09684
2021-01-16 21:59:01+00:00,235.2181,3.0,12.89,47.84626,-54.09684
2021-01-16 22:09:01+00:00,234.0514,2.96,12.89,47.84626,-54.09684
2021-01-16 22:19:01+00:00,234.0081,2.92,12.81,47.84626,-54.09684
2021-01-16 22:29:01+00:00,249.0897,2.95,12.81,47.84626,-54.09684
2021-01-16 22:39:01+00:00,263.2564,3.0,12.81,47.84626,-54.09684
2021-01-16 22:49:01+00:00,265.7564,2.99,12.81,47.84626,-54.09684
2021-01-16 22:59:01+00:00,258.0247,2.95,12.81,47.84626,-54.09684
2021-01-16 23:09:01+00:00,260.8314,2.98,12.81,47.84626,-54.09684
2021-01-16 23:19:01+00:00,271.3114,3.0,12.81,47.84626,-54.09684
2021-01-16 23:29:01+00:00,281.8347,3.07,12.81,47.84626,-54.09684
2021-01-16 23:39:01+00:00,287.5314,3.1,12.81,47.84626,-54.09684
2021-01-16 23:49:01+00:00,292.1114,3.0,12.81,47.84626,-54.09684
2021-01-16 23:59:01+00:00,290.8765,2.99,12.81,47.84626,-54.09684
